Meteo pe oră la Bolshoe Kleschino

Astăzi, 10 Mai, Luni

Timp Temperatura Precipitaţii Vânt Presiune Umiditate
00:00 +3°C° 0 mm 1 m/s 752 mmHg 69%
01:00 +3°C° 0 mm 1 m/s 753 mmHg 69%
02:00 +3°C° 0 mm 1 m/s 753 mmHg 69%
03:00 +3°C° 0 mm 1 m/s 753 mmHg 69%
04:00 +4°C° 0 mm 1 m/s 754 mmHg 68%
05:00 +4°C° 0 mm 1 m/s 754 mmHg 67%
06:00 +6°C° 0 mm 2 m/s 754 mmHg 60%
07:00 +8°C° 0 mm 3 m/s 754 mmHg 54%
08:00 +10°C° 0 mm 3 m/s 754 mmHg 47%
09:00 +12°C° 0 mm 3 m/s 754 mmHg 44%
10:00 +13°C° 0 mm 4 m/s 754 mmHg 40%
11:00 +14°C° 0 mm 4 m/s 754 mmHg 36%
12:00 +14°C° 0 mm 4 m/s 754 mmHg 40%
13:00 +14°C° 0 mm 3 m/s 754 mmHg 43%
14:00 +14°C° 0 mm 3 m/s 754 mmHg 47%
15:00 +16°C° 0 mm 2 m/s 754 mmHg 48%
16:00 +16°C° 0 mm 2 m/s 754 mmHg 49%
17:00 +17°C° 0 mm 2 m/s 754 mmHg 49%
18:00 +15°C° 0 mm 2 m/s 754 mmHg 58%
19:00 +13°C° 0 mm 2 m/s 754 mmHg 66%
20:00 +10°C° 0 mm 2 m/s 755 mmHg 74%
21:00 +9°C° 0 mm 2 m/s 755 mmHg 76%
22:00 +9°C° 0 mm 2 m/s 755 mmHg 78%
23:00 +8°C° 0 mm 2 m/s 755 mmHg 80%

Mâine, 11 Mai, Marţi

Timp Temperatura Precipitaţii Vânt Presiune Umiditate
00:00 +8°C° 0 mm 2 m/s 756 mmHg 80%
01:00 +7°C° 0 mm 2 m/s 756 mmHg 80%
02:00 +7°C° 0 mm 2 m/s 756 mmHg 81%
03:00 +7°C° 0 mm 2 m/s 756 mmHg 79%
04:00 +8°C° 0 mm 2 m/s 756 mmHg 78%
05:00 +9°C° 0 mm 1 m/s 757 mmHg 77%
06:00 +10°C° 0 mm 2 m/s 757 mmHg 69%
07:00 +13°C° 0 mm 2 m/s 757 mmHg 60%
08:00 +15°C° 0 mm 2 m/s 757 mmHg 52%
09:00 +17°C° 0 mm 2 m/s 757 mmHg 48%
10:00 +18°C° 0 mm 2 m/s 757 mmHg 44%
11:00 +20°C° 0 mm 2 m/s 756 mmHg 41%
12:00 +20°C° 0 mm 2 m/s 756 mmHg 40%
13:00 +21°C° 0 mm 2 m/s 756 mmHg 40%
14:00 +21°C° 0 mm 2 m/s 756 mmHg 39%
15:00 +21°C° 0 mm 2 m/s 756 mmHg 42%
16:00 +21°C° 0 mm 2 m/s 756 mmHg 45%
17:00 +20°C° 0 mm 2 m/s 756 mmHg 48%
18:00 +18°C° 0 mm 2 m/s 756 mmHg 58%
19:00 +16°C° 0 mm 2 m/s 756 mmHg 67%
20:00 +13°C° 0 mm 2 m/s 756 mmHg 77%
21:00 +12°C° 0 mm 2 m/s 756 mmHg 80%
22:00 +10°C° 0 mm 2 m/s 756 mmHg 83%
23:00 +9°C° 0 mm 2 m/s 756 mmHg 86%

Poimâine, 12 Mai, Miercuri

Timp Temperatura Precipitaţii Vânt Presiune Umiditate
00:00 +9°C° 0 mm 2 m/s 756 mmHg 86%
01:00 +8°C° 0 mm 2 m/s 756 mmHg 86%
02:00 +8°C° 0 mm 2 m/s 756 mmHg 86%
03:00 +9°C° 0 mm 1 m/s 756 mmHg 85%
04:00 +10°C° 0 mm 1 m/s 756 mmHg 84%
05:00 +10°C° 0 mm 1 m/s 756 mmHg 83%
06:00 +13°C° 0 mm 1 m/s 756 mmHg 76%
07:00 +15°C° 0 mm 2 m/s 756 mmHg 70%
08:00 +17°C° 0 mm 2 m/s 756 mmHg 63%
09:00 +19°C° 0 mm 2 m/s 755 mmHg 59%
10:00 +20°C° 0 mm 3 m/s 755 mmHg 55%
11:00 +22°C° 0 mm 3 m/s 755 mmHg 51%
12:00 +24°C° 0 mm 3 m/s 754 mmHg 48%
13:00 +23°C° 0 mm 4 m/s 754 mmHg 46%
14:00 +25°C° 0 mm 4 m/s 753 mmHg 43%
15:00 +23°C° 0 mm 4 m/s 753 mmHg 46%
16:00 +23°C° 0 mm 4 m/s 752 mmHg 49%
17:00 +22°C° 0 mm 4 m/s 752 mmHg 53%
18:00 +20°C° 0.2 mm 4 m/s 751 mmHg 62%
19:00 +18°C° 0.2 mm 4 m/s 751 mmHg 71%
20:00 +15°C° 0.2 mm 4 m/s 751 mmHg 80%
21:00 +15°C° 0.3 mm 4 m/s 751 mmHg 83%
22:00 +14°C° 0.3 mm 4 m/s 751 mmHg 86%
23:00 +14°C° 0.3 mm 4 m/s 751 mmHg 89%

13 Mai, Joi

Timp Temperatura Precipitaţii Vânt Presiune Umiditate
00:00 +13°C° 0 mm 4 m/s 751 mmHg 90%
01:00 +12°C° 0 mm 4 m/s 751 mmHg 92%
02:00 +11°C° 0 mm 3 m/s 751 mmHg 93%
03:00 +10°C° 0 mm 3 m/s 751 mmHg 93%
04:00 +10°C° 0 mm 2 m/s 751 mmHg 92%
05:00 +9°C° 0 mm 2 m/s 751 mmHg 92%
06:00 +10°C° 0 mm 2 m/s 751 mmHg 83%
07:00 +12°C° 0 mm 3 m/s 751 mmHg 74%
08:00 +14°C° 0 mm 3 m/s 750 mmHg 64%
09:00 +15°C° 0 mm 4 m/s 750 mmHg 61%
10:00 +18°C° 0 mm 4 m/s 749 mmHg 57%
11:00 +19°C° 0 mm 5 m/s 749 mmHg 53%
12:00 +18°C° 0.1 mm 4 m/s 749 mmHg 57%
13:00 +18°C° 0.1 mm 4 m/s 748 mmHg 61%
14:00 +17°C° 0.1 mm 3 m/s 748 mmHg 65%
15:00 +17°C° 0.2 mm 3 m/s 748 mmHg 65%
16:00 +17°C° 0.2 mm 3 m/s 748 mmHg 65%
17:00 +17°C° 0.2 mm 3 m/s 748 mmHg 65%
18:00 +16°C° 0 mm 3 m/s 748 mmHg 72%
19:00 +14°C° 0 mm 2 m/s 748 mmHg 79%
20:00 +13°C° 0 mm 2 m/s 748 mmHg 85%
21:00 +12°C° 0 mm 2 m/s 748 mmHg 88%
22:00 +10°C° 0 mm 2 m/s 749 mmHg 91%
23:00 +10°C° 0 mm 2 m/s 749 mmHg 94%

14 Mai, Vineri

Timp Temperatura Precipitaţii Vânt Presiune Umiditate
00:00 +9°C° 0 mm 2 m/s 749 mmHg 94%
01:00 +9°C° 0 mm 2 m/s 749 mmHg 95%
02:00 +8°C° 0 mm 2 m/s 749 mmHg 95%
03:00 +9°C° 0 mm 2 m/s 749 mmHg 94%
04:00 +9°C° 0 mm 2 m/s 749 mmHg 92%
05:00 +9°C° 0 mm 2 m/s 749 mmHg 91%
06:00 +12°C° 0 mm 2 m/s 749 mmHg 82%
07:00 +14°C° 0 mm 3 m/s 748 mmHg 73%
08:00 +17°C° 0 mm 3 m/s 748 mmHg 65%
09:00 +18°C° 0 mm 3 m/s 748 mmHg 62%
10:00 +19°C° 0 mm 4 m/s 748 mmHg 60%
11:00 +20°C° 0 mm 4 m/s 747 mmHg 57%
12:00 +21°C° 0.1 mm 4 m/s 747 mmHg 55%
13:00 +21°C° 0.1 mm 4 m/s 747 mmHg 54%
14:00 +22°C° 0.1 mm 4 m/s 746 mmHg 52%
15:00 +22°C° 0.2 mm 4 m/s 746 mmHg 57%
16:00 +21°C° 0.2 mm 3 m/s 745 mmHg 62%
17:00 +20°C° 0.2 mm 3 m/s 745 mmHg 67%
18:00 +19°C° 0.7 mm 3 m/s 744 mmHg 75%
19:00 +18°C° 0.7 mm 4 m/s 744 mmHg 83%
20:00 +15°C° 0.7 mm 4 m/s 743 mmHg 91%
21:00 +15°C° 0.4 mm 4 m/s 743 mmHg 92%
22:00 +15°C° 0.4 mm 4 m/s 742 mmHg 93%
23:00 +15°C° 0.4 mm 4 m/s 742 mmHg 94%

15 Mai, Sâmbătă

Timp Temperatura Precipitaţii Vânt Presiune Umiditate
00:00 +14°C° 0.1 mm 3 m/s 742 mmHg 95%
01:00 +14°C° 0.1 mm 3 m/s 742 mmHg 96%
02:00 +13°C° 0.1 mm 3 m/s 742 mmHg 97%
03:00 +14°C° 0 mm 2 m/s 742 mmHg 97%
04:00 +14°C° 0 mm 2 m/s 742 mmHg 96%
05:00 +13°C° 0 mm 2 m/s 742 mmHg 96%
06:00 +15°C° 0 mm 2 m/s 743 mmHg 91%
07:00 +16°C° 0 mm 2 m/s 743 mmHg 86%
08:00 +17°C° 0 mm 3 m/s 743 mmHg 81%
09:00 +18°C° 0 mm 3 m/s 743 mmHg 72%
10:00 +19°C° 0 mm 3 m/s 743 mmHg 64%
11:00 +21°C° 0 mm 3 m/s 743 mmHg 56%
12:00 +21°C° 0 mm 3 m/s 744 mmHg 53%
13:00 +22°C° 0 mm 3 m/s 744 mmHg 51%
14:00 +22°C° 0 mm 3 m/s 744 mmHg 48%
15:00 +21°C° 0 mm 3 m/s 744 mmHg 53%
16:00 +21°C° 0 mm 2 m/s 744 mmHg 58%
17:00 +21°C° 0 mm 1 m/s 744 mmHg 63%
18:00 +19°C° 0 mm 1 m/s 744 mmHg 69%
19:00 +18°C° 0 mm 1 m/s 743 mmHg 75%
20:00 +15°C° 0 mm 1 m/s 743 mmHg 81%
21:00 +15°C° 0 mm 1 m/s 743 mmHg 82%
22:00 +14°C° 0 mm 1 m/s 743 mmHg 82%
23:00 +14°C° 0 mm 2 m/s 743 mmHg 82%
Arată mai mult

Formular de consimțământ

Meteoprog și furnizorii noștri de servicii pot stoca și accesa date personale, precum cookies, identificatori de dispozitiv sau alte tehnologii similare pe dispozitivul dumneavoastră și procesa astfel de date pentru a personaliza conținutul și reclamele, dar și pentru a oferi caracteristici de social media și pentru a analiza traficul.

  • Stocarea și/sau accesarea informațiilor pe dispozitivul dumneavoastră

    Cookies, identificatori de dispozitiv sau alte informații pot fi stocate sau accesate pe dispozitiv în scopurile indicate mai sus.

  • Reclame și conținut personalizat, evaluarea reclamelor și a conținutului, informații despre audiențe și dezvoltarea produselor

    Reclamele și conținutul pot fi personalizate pe baza unui profil. Pot fi adăugate date suplimentare pentru a personaliza mai bine reclamele și conținutul. Performanța reclamelor și conținutului poate fi măsurată. Pot fi obținute informații despre utilizatorii care au văzut reclamele și conținutul. Aceste date pot fi utilizate pentru a dezvolta sau îmbunătăți experiența utilizatorilor, sistemele și software-ul.

Dând clic pe ‘Sunt de acord’, permiteți utilizarea cookie-urilor menționate, a identificatorilor de dispozitiv, balizelor web sau altor tehnologii similare. Setările pot fi modificate din browser-ul dispozitivului dumneavoastră.

În anumite scopuri, interesele legitime pot prima asupra consimțământului. Puteți citi mai multe informații în acest sens în Politica privind Confidențialitatea Datelor și Cookie.